Location: Miami, Florida
(25.6830°N, 80.1700°W)
Time: 11:23:46
(UTC-04:00)

Vanguard 1 - Visible Passes

Search period start: 25 June 2018 00:00
Search period end: 05 July 2018 00:00
Orbit: 650 x 3833 km, 34.3° (Epoch: 24 June)

Date Brightness Start Highest point End Pass type
(mag) Time Alt. Az. Time Alt. Az. Time Alt. Az.
25 Jun 10.7 04:44:10 33° SSW 04:47:05 56° SE 04:57:32 10° ENE visible
26 Jun 10.6 05:03:59 27° SW 05:07:54 77° SSE 05:19:16 10° ENE visible
27 Jun 11.9 03:11:05 18° ESE 03:11:05 18° ESE 03:14:22 10° E visible
27 Jun 10.7 05:23:47 18° WSW 05:28:57 83° NNW 05:40:58 10° ENE visible
28 Jun 11.2 03:30:52 32° ESE 03:30:52 32° ESE 03:36:33 10° ENE visible
28 Jun 11.1 05:43:34 10° W 05:50:12 68° NNW 06:02:43 10° ENE visible
29 Jun 10.3 03:50:38 53° SE 03:50:38 53° SE 03:58:17 10° ENE visible
29 Jun 11.4 06:04:40 10° W 06:11:36 59° N 06:24:37 10° ENE visible
30 Jun 9.8 04:10:24 69° SSW 04:11:07 79° SSE 04:19:50 10° ENE visible
01 Jul 10.2 04:30:10 45° W 04:32:08 77° NNW 04:41:20 10° ENE visible
02 Jul 12.1 02:37:13 14° E 02:37:13 14° E 02:38:23 10° E visible
02 Jul 10.6 04:49:55 26° W 04:53:19 61° NNW 05:02:54 10° ENE visible
03 Jul 11.5 02:56:59 25° E 02:56:59 25° E 02:59:57 10° ENE visible
03 Jul 11.0 05:09:41 15° W 05:14:38 52° N 05:24:34 10° ENE visible
04 Jul 10.8 03:16:43 41° ENE 03:16:43 41° ENE 03:21:19 10° ENE visible
04 Jul 11.4 05:30:05 10° WNW 05:36:00 48° N 05:46:26 10° ENE visible
